www.pogodaiklimat.ru

Погода и климат >> Архив погоды >> Испания >> Касерес


ПОГОДА в Касересе

  • Прогноз погоды в Касересе
  • Монитор погоды в Касересе

АРХИВ ПОГОДЫ в Касересе

Время (UTC), дата Ветер
(напр.,м/с)
 
Видим.   Явления Облачность Т
(С)
Тd
(С)
f
(%)
Тe
(С)
Тes
(С)
Комфортность P
(гПа)
Po
(гПа)
Тmin
(С)
Tmax
(С)
R
(мм)
R24
(мм)
S
(см)
10 16.09 СЗ 2 20 км н/о +26.1 +13.2 45 +28 +28 жарко 1017.5 973.5
11 16.09 СЗ 2 20 км н/о +26.5 +13.9 46 +29 +29 жарко 1017.1 973.2
12 16.09 СВ 2 15 км 4/4 600 м
[Cu hum Ac trans]
+28.8 +13.1 38 +30 +39 жарко 1016.1 972.6
13 16.09 Ю 2 20 км н/о +28.3 +10.9 34 +29 +29 жарко 1015.9 972.3
14 16.09 ЮЗ 3 20 км н/о +30.5 +11.0 30 +31 +31 жарко 1014.9 971.6
15 16.09 Ю 3 19 км н/о +29.6 +10.7 31 +30 +30 жарко 1014.5 971.1
16 16.09 З 3 20 км н/о +30.5 +11.0 30 +31 +31 жарко 1013.8 970.6
17 16.09 З 3 20 км н/о +28.9 +11.0 33 +29 +29 жарко 1014.3 970.8
18 16.09 С 2 20 км н/о +27.5 +12.3 39 +29 +29 жарко 1014.8 971.1 +30.9
19 16.09 ЮЗ 2 20 км н/о +24.5 +12.8 48 +26 +26 жарко 1015.4 971.3
20 16.09 Ю 2 20 км н/о +23.7 +13.0 51 +26 +26 жарко 1016.0 971.7
21 16.09 ЮВ 3 20 км н/о +24.3 +12.9 49 +26 +26 жарко 1016.1 971.9
22 16.09 Ю 2 20 км н/о +22.6 +13.4 56 +26 +26 жарко 1016.3 971.9
23 16.09 ЮЗ 2 20 км н/о +20.9 +13.1 61 +24 +24 комфорт 1016.5 971.8
00 17.09 ЮЗ 2 20 км н/о +21.4 +13.3 60 +24 +24 комфорт 1016.3 971.7
01 17.09 ЮЗ 1 20 км н/о +20.3 +13.0 63 +24 +24 комфорт 1016.3 971.5
02 17.09 ЮЗ 1 20 км н/о +19.9 +13.1 65 +23 +23 комфорт 1015.8 971.0
03 17.09 ЮЗ 1 20 км н/о +19.0 +13.2 69 +21 +21 комфорт 1015.7 970.8
04 17.09 ЮВ 1 20 км н/о +18.9 +13.1 69 +21 +21 комфорт 1015.7 970.7
05 17.09 ЮЗ 1 20 км н/о +18.5 +13.4 72 +20 +20 1015.7 970.7
06 17.09 З 1 10 км 9/4 600 м
[Frnb Ac inh Ci sp]
+18.7 +13.1 70 +21 +21 комфорт 1015.8 970.8 +18.3
07 17.09 ЮВ 1 20 км н/о +19.6 +12.8 65 +22 +22 комфорт 1015.9 971.0
08 17.09 С 1 20 км н/о +22.0 +13.1 57 +25 +25 комфорт 1015.8 971.3
09 17.09 С 1 20 км ясно +24.6 +12.5 47 +26 +33 жарко 1015.5 971.4
10 17.09 Ю 3 20 км н/о +28.6 +12.1 36 +30 +30 жарко 1014.8 971.3
11 17.09 ЮЗ 2 20 км н/о +29.4 +12.3 35 +30 +30 жарко 1014.2 970.8
12 17.09 Ю 3 15 км 8/6 600 м
[Cu Sc Ci fib]
+29.1 +12.1 35 +30 +34 жарко 1013.8 970.4
13 17.09 ЮЗ 2 20 км н/о +29.9 +11.4 32 +30 +30 жарко 1012.9 969.6
14 17.09 ЮЗ 4 20 км н/о +30.9 +10.3 28 +31 +31 жарко 1012.0 968.9
15 17.09 Ю 4 20 км н/о +31.7 +9.8 26 +31 +31 жарко 1011.1 968.1
16 17.09 ЮЗ 3 20 км н/о +31.5 +9.1 25 +31 +31 жарко 1010.8 967.8
17 17.09 ЮВ 5 20 км н/о +30.3 +10.3 29 +30 +30 жарко 1010.7 967.6
18 17.09 СВ 4 20 км в посл. час дождь н/о +24.0 +14.4 55 +27 +27 жарко 1013.4 969.3 +32.0 0.0
19 17.09 Ю 4 7000 м дождь н/о +20.2 +15.8 76 +23 +23 комфорт 1013.7 969.1 0.4
20 17.09 В 6 20 км в посл. час дождь н/о +20.1 +14.0 68 +22 +22 комфорт 1015.1 970.4 0.6
21 17.09 ЮВ 2 20 км в посл. час дождь н/о +19.1 +14.8 76 +21 +21 комфорт 1015.2 970.3 1
22 17.09 ЮВ 3 20 км н/о +19.0 +13.6 71 +20 +20 1015.4 970.5
23 17.09 ЮВ 2 20 км н/о +19.3 +12.1 63 +21 +21 комфорт 1014.8 969.9
00 18.09 ЮВ 1 20 км дымка н/о +18.7 +12.2 66 +20 +20 1014.7 969.7
01 18.09 СЗ 1 20 км н/о +17.2 +12.7 75 +18 +18 1015.2 970.0
02 18.09 ЮЗ 1 20 км н/о +16.5 +13.2 81 +17 +17 1015.2 969.9
03 18.09 ЮЗ 1 20 км н/о +15.4 +13.2 87 +16 +16 1015.2 969.7
04 18.09 Ю 1 20 км н/о +15.7 +13.4 86 +16 +16 1015.1 969.7
05 18.09 СВ 1 20 км н/о +15.3 +12.8 85 +17 +17 1015.3 969.8
06 18.09 ЮВ 2 25 км 1/1 600 м
[Frnb]
+15.9 +12.8 82 +16 +16 1015.6 970.2 +15.0
07 18.09 ЮВ 1 20 км н/о +16.6 +13.9 84 +17 +17 1015.9 970.6
08 18.09 ЮВ 1 20 км н/о +19.1 +13.5 70 +22 +22 комфорт 1016.1 971.2
09 18.09 В 2 35 км ясно +21.7 +13.6 60 +24 +30 комфорт 1016.2 971.6
12 18.09 ЮЗ 3 28 км ясно +27.5 +13.8 43 +30 +41 жарко 1014.8 971.1
13 18.09 ЮЗ 3 20 км н/о +28.8 +13.1 38 +30 +30 жарко 1014.2 970.7
14 18.09 Ю 3 20 км н/о +29.5 +11.5 33 +30 +30 жарко 1013.5 970.1
15 18.09 ЮЗ 4 20 км н/о +30.1 +9.0 27 +30 +30 жарко 1013.0 969.7
16 18.09 Ю 2 20 км н/о +30.4 +7.6 24 +29 +29 жарко 1012.6 969.4
17 18.09 ЮЗ 2 20 км н/о +30.2 +7.4 24 +29 +29 жарко 1012.6 969.3
18 18.09 ЮЗ 3 20 км н/о +27.6 +7.4 28 +27 +27 жарко 1013.2 969.5 +31.1
19 18.09 Ю 4 20 км н/о +24.2 +8.2 36 +25 +25 комфорт 1014.0 969.8
20 18.09 ЮЗ 4 20 км н/о +24.1 +7.3 34 +24 +24 комфорт 1014.4 970.2
21 18.09 ЮЗ 4 20 км н/о +24.5 +7.2 33 +25 +25 комфорт 1014.6 970.4
22 18.09 ЮЗ 5 20 км н/о +24.1 +8.5 37 +25 +25 комфорт 1014.8 970.6
23 18.09 З 3 20 км н/о +23.0 +10.1 44 +25 +25 комфорт 1015.4 971.0
00 19.09 З 2 20 км н/о +22.2 +12.2 53 +25 +25 комфорт 1015.4 970.9
01 19.09 ЮЗ 4 11 км н/о +20.9 +13.3 62 +24 +24 комфорт 1015.4 970.8
02 19.09 ЮЗ 5 10 км н/о +20.2 +13.6 66 +22 +22 комфорт 1015.3 970.6
03 19.09 ЮЗ 4 12 км н/о +20.1 +13.8 67 +22 +22 комфорт 1014.9 970.2
04 19.09 В 1 20 км н/о +19.6 +13.3 67 +22 +22 комфорт 1015.0 970.2
05 19.09 Ю 1 20 км н/о +17.8 +13.3 75 +19 +19 1015.5 970.4
06 19.09 ЮВ 1 6000 м мгла 5/1 600 м
[Cu hum Ac cast]
+17.7 +13.0 74 +19 +19 1015.7 970.6 +17.6
07 19.09 штиль 0 19 км н/о +18.1 +13.4 74 +18 +18 1016.1 971.0
08 19.09 В 2 20 км н/о +20.5 +13.9 66 +24 +24 комфорт 1016.0 971.3
09 19.09 С 1 20 км н/о +22.4 +13.7 58 +26 +26 жарко 1016.2 971.7
10 19.09 С 2 20 км н/о +24.1 +13.9 53 +26 +26 жарко 1015.9 971.7
11 19.09 СЗ 2 20 км н/о +26.1 +12.9 44 +28 +28 жарко 1015.2 971.3
12 19.09 З 3 18 км 6/0
[Ci fib]
+28.1 +12.0 37 +29 +40 жарко 1014.4 970.8
13 19.09 ЮЗ 3 20 км н/о +29.0 +11.1 33 +30 +30 жарко 1013.7 970.3
14 19.09 ЮЗ 4 20 км н/о +29.8 +10.8 31 +30 +30 жарко 1012.8 969.5
15 19.09 ЮЗ 3 20 км н/о +30.5 +11.0 30 +31 +31 жарко 1012.2 969.0
16 19.09 Ю 2 20 км н/о +30.3 +10.3 29 +30 +30 жарко 1011.9 968.7
17 19.09 ЮЗ 4 20 км н/о +29.3 +8.9 28 +29 +29 жарко 1011.7 968.4
18 19.09 ЮЗ 4 20 км н/о +27.9 +9.2 31 +28 +28 жарко 1012.1 968.5 +30.7
19 19.09 ЮЗ 3 20 км н/о +26.0 +9.8 36 +27 +27 жарко 1012.5 968.7
20 19.09 ЮЗ 2 20 км н/о +23.4 +9.4 41 +25 +25 комфорт 1013.2 969.0
21 19.09 З 3 20 км н/о +24.5 +8.8 37 +25 +25 комфорт 1013.7 969.6
22 19.09 З 2 20 км н/о +22.8 +10.9 47 +25 +25 комфорт 1014.0 969.7
23 19.09 З 2 20 км н/о +22.2 +11.6 51 +24 +24 комфорт 1014.0 969.6
00 20.09 З 3 20 км н/о +21.8 +11.8 53 +24 +24 комфорт 1013.9 969.4
01 20.09 ЮЗ 2 20 км н/о +20.8 +12.0 57 +24 +24 комфорт 1013.7 969.1
02 20.09 ЮЗ 2 20 км н/о +20.0 +12.0 60 +22 +22 комфорт 1013.5 968.8
03 20.09 ЮЗ 4 20 км н/о +20.3 +12.3 60 +22 +22 комфорт 1013.4 968.7
04 20.09 СЗ 2 20 км н/о +19.9 +12.4 62 +22 +22 комфорт 1013.4 968.7
05 20.09 ЮВ 2 20 км н/о +19.2 +12.5 65 +21 +21 комфорт 1013.5 968.7
06 20.09 ЮВ 1 10 км 9/0 1500 м
[Ac As]
+18.7 +12.2 66 +21 +21 комфорт 1013.8 968.9 +18.6
07 20.09 В 1 20 км н/о +19.0 +12.3 65 +22 +22 комфорт 1014.1 969.2
08 20.09 В 2 20 км н/о +20.9 +12.3 58 +24 +24 комфорт 1014.1 969.5
09 20.09 Ю 4 10 км 6/0
[Ac und Ci sp]
+23.0 +12.9 53 +26 +28 жарко 1013.9 969.6
10 20.09 Ю 5 20 км н/о +24.0 +10.6 43 +25 +25 комфорт 1013.7 969.5
11 20.09 Ю 5 20 км н/о +24.7 +11.3 43 +26 +26 жарко 1013.0 969.0
12 20.09 Ю 5 15 км 9/0 1000 м
[Ac und Cs]
+26.0 +11.4 40 +27 +31 жарко 1012.4 968.6
13 20.09 Ю 5 20 км н/о +26.3 +11.6 40 +28 +28 жарко 1011.7 968.0
14 20.09 ЮЗ 4 20 км н/о +26.3 +11.2 39 +27 +27 жарко 1011.4 967.7
15 20.09 Ю 4 20 км н/о +25.6 +10.6 39 +27 +27 жарко 1011.3 967.5
16 20.09 ЮЗ 5 20 км н/о +24.4 +11.7 45 +26 +26 жарко 1011.4 967.4
17 20.09 Ю 3 20 км в посл. час морось н/о +23.4 +12.7 51 +26 +26 жарко 1011.6 967.5 0.0
06 21.09 ЮВ 4 19 км слаб. дождь н/о +18.3 +13.8 75 +19 +19 1012.1 967.2
07 21.09 Ю 4 15 км слаб. дождь н/о +17.5 +14.9 85 +17 +17 1012.5 967.5 0.2
08 21.09 ЮВ 4 19 км в посл. час дождь н/о +18.3 +15.4 83 +19 +19 1012.6 967.7 0.2
09 21.09 ЮВ 4 11 км дождь н/о +17.9 +14.8 82 +18 +18 1013.0 968.0 1
10 21.09 Ю 5 8000 м слаб. морось с дождем н/о +17.2 +15.5 90 +16 +16 1013.3 968.2 1
11 21.09 Ю 5 1500 м сильн. дождь н/о +16.9 +15.8 93 +16 +16 1013.3 968.2 3
12 21.09 ЮВ 4 3000 м дождь {морось} 10/8 100 м
[Frnb Ac As]
+17.3 +16.5 95 +17 +17 1012.9 967.9 6
13 21.09 Ю 5 5000 м слаб. морось с дождем н/о +17.8 +16.8 94 +17 +17 1012.5 967.6 0.4
14 21.09 Ю 5 15 км в посл. час морось н/о +18.8 +17.8 94 +20 +20 1011.9 967.2 2
15 21.09 Ю 5 10 км слаб. морось н/о +19.2 +17.9 92 +21 +21 комфорт 1011.4 966.8 3
16 21.09 Ю 4 20 км н/о +20.7 +17.7 83 +25 +25 комфорт 1011.0 966.6
17 21.09 ЮВ 2 11 км слаб. дождь н/о +20.0 +18.0 88 +24 +24 комфорт 1010.8 966.3 2
18 21.09 Ю 5 20 км дымка н/о +20.8 +17.2 80 +25 +25 комфорт 1010.5 966.1 +20.8 2
19 21.09 Ю 5 20 км слаб. дождь н/о +20.4 +17.2 82 +24 +24 комфорт 1010.3 965.9 0.0
20 21.09 Ю 6 20 км в посл. час дождь н/о +20.7 +16.9 79 +24 +24 комфорт 1010.7 966.3 0.0
21 21.09 Ю 6 20 км в посл. час дождь н/о +19.7 +16.7 83 +22 +22 комфорт 1011.1 966.5 0.0
22 21.09 Ю 6 15 км н/о +19.1 +15.8 81 +20 +20 1011.9 967.2 0.0
23 21.09 Ю 5 3000 м морось с дождем н/о +18.3 +16.6 90 +18 +18 1012.0 967.2 1
00 22.09 Ю 5 2400 м морось с дождем н/о +18.0 +17.2 95 +18 +18 1012.1 967.2 2
01 22.09 В 2 12 км слаб. морось н/о +17.9 +17.3 96 +18 +18 1012.1 967.2 2
02 22.09 З 3 18 км в посл. час дождь н/о +15.5 +14.0 91 +15 +15 1013.1 967.8 3
03 22.09 З 4 20 км н/о +14.3 +12.8 91 +13 +13 1013.4 967.8 5
04 22.09 З 4 20 км н/о +13.9 +12.3 90 +12 +12 1013.7 968.1
05 22.09 ЮЗ 6 20 км н/о +13.6 +12.5 93 +11 +11 1014.1 968.4
06 22.09 ЮЗ 6 19 км дымка {дождь} н/о +13.6 +12.8 95 +11 +11 1014.9 969.2 +13.5
07 22.09 ЮЗ 6 17 км н/о +13.8 +13.2 96 +12 +12 1015.4 969.7 0.2
08 22.09 ЮЗ 6 19 км н/о +15.4 +13.9 91 +14 +14 1016.0 970.5
09 22.09 СЗ 3 20 км н/о +16.5 +14.0 85 +16 +16 1016.4 971.1 0.2
10 22.09 З 3 20 км н/о +17.2 +14.5 84 +17 +17 1016.7 971.5
11 22.09 З 4 20 км н/о +18.7 +13.8 73 +19 +19 1016.7 971.7
12 22.09 З 4 20 км дымка н/о +20.4 +12.4 60 +23 +26 комфорт 1016.5 971.7
13 22.09 З 4 20 км н/о +21.2 +11.8 55 +23 +23 комфорт 1016.0 971.3
14 22.09 СЗ 5 20 км н/о +20.9 +12.8 60 +23 +23 комфорт 1016.3 971.6
15 22.09 СЗ 4 20 км н/о +21.5 +10.3 49 +23 +23 комфорт 1016.1 971.5
16 22.09 З 3 20 км н/о +21.6 +10.7 50 +23 +23 комфорт 1015.9 971.3
17 22.09 З 3 20 км н/о +21.2 +9.7 48 +23 +23 комфорт 1016.4 971.7
18 22.09 З 2 20 км дымка н/о +20.0 +10.1 53 +22 +22 комфорт 1016.8 971.9 +22.2
19 22.09 З 2 20 км н/о +18.3 +10.1 59 +19 +19 1017.5 972.3
20 22.09 ЮЗ 3 20 км н/о +17.1 +10.2 64 +17 +17 1018.3 972.9
21 22.09 ЮЗ 2 20 км н/о +16.7 +10.3 66 +17 +17 1018.8 973.3
22 22.09 З 3 20 км н/о +17.3 +10.2 63 +17 +17 1019.0 973.6
23 22.09 З 2 20 км н/о +16.5 +10.3 67 +17 +17 1019.1 973.6
00 23.09 З 2 20 км н/о +15.9 +10.4 70 +16 +16 1019.4 973.8
01 23.09 З 2 20 км н/о +15.4 +10.4 72 +15 +15 1019.7 974.0
02 23.09 ЮЗ 2 20 км н/о +14.8 +9.8 72 +15 +15 1019.4 973.6
03 23.09 ЮЗ 2 20 км н/о +14.3 +10.3 77 +14 +14 1019.7 973.8
04 23.09 З 1 20 км н/о +14.5 +9.5 72 +16 +16 1019.9 974.0
05 23.09 ЮЗ 2 20 км н/о +13.0 +9.8 81 +13 +13 1020.4 974.3
06 23.09 ЮЗ 1 20 км н/о +12.0 +9.9 87 +13 +13 1021.3 975.0 +11.9
07 23.09 ЮВ 2 20 км н/о +12.9 +10.8 87 +12 +12 1021.2 975.0
08 23.09 В 1 20 км н/о +15.2 +11.8 80 +16 +16 1021.5 975.7
09 23.09 В 2 20 км н/о +17.3 +12.2 72 +18 +18 1021.5 976.0
10 23.09 З 2 20 км н/о +19.7 +9.3 51 +22 +22 комфорт 1021.5 976.3

 

Местоположение метеостанции Касерес (Испания): широта 39.47 долгота -6.33 высота над уровнем моря 405 м.

В архиве по умолчанию представлена погода в Касересе за последнюю неделю. Архивные данные за месяц целиком и за предыдущие месяцы, начиная с января 2011 года, Вы можете получить, выбрав интересующий диапазон дат из раскрывающегося списка и нажав кнопку "Ввод!".


*Определитесь, кто Вы:
робот инопланетянин человек

Внимание! Время в таблицах - всемирное. Для получения местного времени необходимо прибавить поправку, которая равна 1 ч.

Смотрите также архив погоды в соседних городах и на ближайших метеорологических станциях:

Погода в Трухильо (Испания) (41 км)
Погода в Мериде (Испания) (61 км)
Погода в Кориа (Испания) (62 км)
Погода в Пласенсии (Испания) (67 км)
Погода в Дон Бенито (Испания) (69 км)
Погода в Бадахосе (Испания) (79 км)
Погода в Валенсия-де-Алькантаре (Испания) (79 км)
Погода в Навальмораль-де-ла-Мате (Испания) (83 км)
Погода в Порталегре (Португалия) (96 км)
Погода в Кастело Бранко (Португалия) (106 км)

Пояснения к столбцам:

Ветер - указаны скорость ветра в м/с - средняя за 10 мин, порывы в срок и между сроками (в фигурных скобках) и направление, откуда дует ветер: С - северный, СВ - северо-восточный, В - восточный, ЮВ - юго-восточный, Ю - южный, ЮЗ - юго-западный, З - западный, СЗ - северо-западный.
Видимость - горизонтальная дальность видимости в метрах или километрах. При видимости от 1 до 10 км при отсутствии осадков обычно наблюдается дымка, при ухудшении видимости до 1 км и менее - туман. В сухую погоду видимость может ухудшаться дымом, пылью или мглою.
Явления - указаны атмосферные явления, наблюдавшиеся в срок или в последний час перед сроком; фигурными скобками обозначены явления, наблюдавшиеся между сроками (за 1-3 часа до срока); квадратными скобками обозначены град или гололедные отложения с указанием их диаметра в мм.
Облачность - указаны через наклонную черту общая и нижняя облачность в баллах и высота нижней границы облаков в метрах; квадратными скобками обозначены формы облаков: Ci - перистые, Cs - перисто-слоистые, Cc - перисто-кучевые, Ac - высококучевые, As - высокослоистые, Sc - слоисто-кучевые, Ns - слоисто-дождевые, Cu - кучевые, Cb - кучево-дождевые. Подробнее классификацию облаков см. в Атласе облаков (PDF).
T - Температура воздуха - температура, измеренная на высоте 2 м над землей.
Td - Температура точки росы - температура, при понижении до которой содержащийся в воздухе водяной пар достигнет насыщения.
f - Относительная влажность воздуха - влажноcть воздуха, измеренная на высоте 2 м над землей.
Te - Эффективная температура - температура, которую ощущает одетый по сезону человек в тени. Характеристика душности погоды. При расчете учитывается влияние влажности воздуха и скорости ветра на теплоощущения человека.
Tes - Эффективная температура на солнце - температура, которую ощущает человек, с поправкой на солнечный нагрев. Характеристика знойности погоды. Зависит от высоты солнца над горизонтом, облачности и скорости ветра. Ночью, в пасмурную погоду, а также при ветре 12 м/с и более поправка равна нулю.
P - Атмосферное давление - приведенное к уровню моря атмосферное давление.
Po - Атмосферное давление - измеренное на уровне метеостанции атмосферное давление.
Tmin - Минимальная температура - минимум температуры воздуха на высоте 2 м над землей.
Tmax - Максимальная температура - максимум температуры воздуха на высоте 2 м над землей.
R - Количество осадков - Количество выпавших осадков за период времени, мм. При наведении курсора мыши на число - период времени, за который выпало указанное количество осадков.
R24 - Количество осадков - Количество выпавших осадков за 24 часа, мм.
S - Снежный покров - Высота снежного покрова, см. При наведении курсора мыши на число - состояние снежного покрова и степень покрытия местности в баллах.